When you browse on this site, cookies collect data to enhance your experience and personalize the content and advertising you see.
Visit our Privacy Policy to learn more. By continuing to use the site, you agree to this use of cookies and data.
  • In Lithuania
  • List of Countries
  • For 7 days
  • Water Temperature
  • Weather Map
  • Weather Widgets
  • user-avatar
    Login

    Hourly Weather La Massana

    Today, 6 April, Monday

    Time Temperature Precipitation Wind Pressure Humidity
    00:00 +1°C° 0 mm 1 mps 609 mmHg 87%
    01:00 +1°C° 0 mm 1 mps 609 mmHg 85%
    02:00 +2°C° 0 mm 1 mps 609 mmHg 83%
    03:00 +2°C° 0 mm 1 mps 609 mmHg 81%
    04:00 +2°C° 0 mm 1 mps 609 mmHg 80%
    05:00 +2°C° 0 mm 1 mps 610 mmHg 79%
    06:00 +2°C° 0 mm 1 mps 610 mmHg 78%
    07:00 +4°C° 0 mm 1 mps 611 mmHg 74%
    08:00 +6°C° 0 mm 1 mps 612 mmHg 69%
    09:00 +8°C° 0 mm 1 mps 613 mmHg 65%
    10:00 +9°C° 0 mm 1 mps 614 mmHg 63%
    11:00 +9°C° 0 mm 2 mps 614 mmHg 61%
    12:00 +10°C° 0 mm 2 mps 615 mmHg 59%
    13:00 +9°C° 0.1 mm 2 mps 615 mmHg 64%
    14:00 +8°C° 0.1 mm 2 mps 614 mmHg 68%
    15:00 +8°C° 0.1 mm 1 mps 614 mmHg 72%
    16:00 +8°C° 0 mm 1 mps 614 mmHg 76%
    17:00 +7°C° 0 mm 1 mps 613 mmHg 80%
    18:00 +6°C° 0 mm 1 mps 613 mmHg 84%
    19:00 +5°C° 0 mm 1 mps 613 mmHg 87%
    20:00 +4°C° 0 mm 1 mps 613 mmHg 89%
    21:00 +4°C° 0 mm 1 mps 613 mmHg 92%
    22:00 +4°C° 0 mm 1 mps 613 mmHg 92%
    23:00 +4°C° 0 mm 1 mps 613 mmHg 93%

    Tomorrow, 7 April, Tuesday

    Time Temperature Precipitation Wind Pressure Humidity
    00:00 +4°C° 0 mm 1 mps 613 mmHg 93%
    01:00 +4°C° 0 mm 1 mps 613 mmHg 93%
    02:00 +4°C° 0 mm 1 mps 613 mmHg 93%
    03:00 +4°C° 0 mm 1 mps 613 mmHg 93%
    04:00 +4°C° 0 mm 1 mps 613 mmHg 93%
    05:00 +4°C° 0 mm 1 mps 613 mmHg 92%
    06:00 +4°C° 0 mm 1 mps 613 mmHg 92%
    07:00 +5°C° 0 mm 1 mps 614 mmHg 87%
    08:00 +6°C° 0 mm 1 mps 614 mmHg 83%
    09:00 +7°C° 0 mm 1 mps 615 mmHg 79%
    10:00 +7°C° 0.1 mm 1 mps 615 mmHg 79%
    11:00 +7°C° 0.1 mm 1 mps 615 mmHg 79%
    12:00 +8°C° 0.1 mm 1 mps 615 mmHg 79%
    13:00 +7°C° 0.1 mm 1 mps 615 mmHg 80%
    14:00 +7°C° 0.1 mm 1 mps 615 mmHg 81%
    15:00 +7°C° 0.1 mm 1 mps 615 mmHg 81%
    16:00 +7°C° 0.1 mm 1 mps 614 mmHg 84%
    17:00 +6°C° 0.1 mm 1 mps 614 mmHg 86%
    18:00 +5°C° 0.1 mm 1 mps 614 mmHg 88%
    19:00 +5°C° 0 mm 1 mps 614 mmHg 89%
    20:00 +4°C° 0 mm 1 mps 614 mmHg 90%
    21:00 +3°C° 0 mm 1 mps 614 mmHg 91%
    22:00 +3°C° 0 mm 1 mps 614 mmHg 91%
    23:00 +3°C° 0 mm 1 mps 614 mmHg 92%

    Day after tomorrow, 8 April, Wednesday

    Time Temperature Precipitation Wind Pressure Humidity
    00:00 +3°C° 0 mm 1 mps 613 mmHg 92%
    01:00 +3°C° 0 mm 1 mps 613 mmHg 92%
    02:00 +2°C° 0 mm 1 mps 613 mmHg 93%
    03:00 +2°C° 0 mm 1 mps 613 mmHg 93%
    04:00 +3°C° 0 mm 1 mps 613 mmHg 92%
    05:00 +3°C° 0 mm 1 mps 613 mmHg 91%
    06:00 +3°C° 0 mm 1 mps 613 mmHg 90%
    07:00 +5°C° 0 mm 1 mps 614 mmHg 82%
    08:00 +7°C° 0 mm 1 mps 615 mmHg 75%
    09:00 +10°C° 0 mm 1 mps 616 mmHg 67%
    10:00 +10°C° 0.2 mm 1 mps 616 mmHg 67%
    11:00 +10°C° 0.2 mm 1 mps 616 mmHg 67%
    12:00 +10°C° 0.2 mm 2 mps 616 mmHg 67%
    13:00 +10°C° 0.6 mm 1 mps 615 mmHg 70%
    14:00 +10°C° 0.6 mm 1 mps 615 mmHg 73%
    15:00 +9°C° 0.6 mm 1 mps 615 mmHg 77%
    16:00 +9°C° 0.3 mm 1 mps 614 mmHg 80%
    17:00 +8°C° 0.3 mm 1 mps 614 mmHg 83%
    18:00 +7°C° 0.3 mm 1 mps 614 mmHg 87%
    19:00 +6°C° 0 mm 1 mps 613 mmHg 89%
    20:00 +5°C° 0 mm 1 mps 613 mmHg 91%
    21:00 +4°C° 0 mm 1 mps 613 mmHg 92%
    22:00 +4°C° 0 mm 1 mps 613 mmHg 92%
    23:00 +4°C° 0 mm 1 mps 613 mmHg 91%

    9 April, Thursday

    Time Temperature Precipitation Wind Pressure Humidity
    00:00 +4°C° 0 mm 1 mps 612 mmHg 90%
    01:00 +4°C° 0 mm 1 mps 612 mmHg 88%
    02:00 +3°C° 0 mm 1 mps 612 mmHg 85%
    03:00 +3°C° 0 mm 1 mps 612 mmHg 83%
    04:00 +4°C° 0 mm 1 mps 612 mmHg 80%
    05:00 +4°C° 0 mm 1 mps 612 mmHg 78%
    06:00 +4°C° 0 mm 1 mps 612 mmHg 75%
    07:00 +6°C° 0 mm 1 mps 613 mmHg 69%
    08:00 +9°C° 0 mm 1 mps 614 mmHg 63%
    09:00 +11°C° 0 mm 0 mps 615 mmHg 57%
    10:00 +12°C° 0 mm 1 mps 615 mmHg 55%
    11:00 +13°C° 0 mm 1 mps 615 mmHg 53%
    12:00 +14°C° 0 mm 2 mps 615 mmHg 52%
    13:00 +13°C° 0.2 mm 2 mps 615 mmHg 57%
    14:00 +12°C° 0.2 mm 1 mps 614 mmHg 62%
    15:00 +12°C° 0.2 mm 1 mps 614 mmHg 67%
    16:00 +11°C° 0.4 mm 1 mps 613 mmHg 74%
    17:00 +10°C° 0.4 mm 1 mps 613 mmHg 81%
    18:00 +9°C° 0.4 mm 1 mps 612 mmHg 88%
    19:00 +8°C° 0.1 mm 1 mps 612 mmHg 90%
    20:00 +7°C° 0.1 mm 1 mps 612 mmHg 92%
    21:00 +6°C° 0.1 mm 1 mps 612 mmHg 94%
    22:00 +6°C° 0 mm 1 mps 612 mmHg 94%
    23:00 +6°C° 0 mm 1 mps 612 mmHg 94%

    10 April, Friday

    Time Temperature Precipitation Wind Pressure Humidity
    00:00 +5°C° 0 mm 1 mps 612 mmHg 94%
    01:00 +5°C° 0 mm 1 mps 612 mmHg 93%
    02:00 +5°C° 0 mm 1 mps 611 mmHg 93%
    03:00 +5°C° 0 mm 1 mps 611 mmHg 93%
    04:00 +5°C° 0 mm 1 mps 611 mmHg 92%
    05:00 +5°C° 0 mm 1 mps 611 mmHg 92%
    06:00 +5°C° 0 mm 1 mps 611 mmHg 91%
    07:00 +7°C° 0 mm 1 mps 612 mmHg 86%
    08:00 +8°C° 0 mm 1 mps 613 mmHg 81%
    09:00 +10°C° 0 mm 1 mps 614 mmHg 76%
    10:00 +10°C° 0.3 mm 1 mps 614 mmHg 75%
    11:00 +10°C° 0.3 mm 2 mps 614 mmHg 73%
    12:00 +10°C° 0.3 mm 2 mps 614 mmHg 71%
    13:00 +10°C° 0.8 mm 2 mps 614 mmHg 75%
    14:00 +9°C° 0.8 mm 2 mps 613 mmHg 79%
    15:00 +9°C° 0.8 mm 1 mps 613 mmHg 82%
    16:00 +9°C° 0.9 mm 1 mps 613 mmHg 86%
    17:00 +8°C° 0.9 mm 1 mps 612 mmHg 89%
    18:00 +7°C° 0.9 mm 1 mps 612 mmHg 92%
    19:00 +6°C° 0.3 mm 0 mps 612 mmHg 93%
    20:00 +5°C° 0.3 mm 0 mps 612 mmHg 95%
    21:00 +5°C° 0.3 mm 0 mps 613 mmHg 96%
    22:00 +5°C° 0.1 mm 0 mps 612 mmHg 96%
    23:00 +4°C° 0.1 mm 0 mps 612 mmHg 96%

    11 April, Saturday

    Time Temperature Precipitation Wind Pressure Humidity
    00:00 +4°C° 0.1 mm 0 mps 612 mmHg 97%
    01:00 +4°C° 0.2 mm 0 mps 612 mmHg 96%
    02:00 +4°C° 0.2 mm 0 mps 612 mmHg 96%
    03:00 +4°C° 0.2 mm 0 mps 612 mmHg 96%
    04:00 +5°C° 0.4 mm 1 mps 612 mmHg 95%
    05:00 +5°C° 0.4 mm 1 mps 612 mmHg 95%
    06:00 +5°C° 0.4 mm 1 mps 612 mmHg 94%
    07:00 +6°C° 0.5 mm 1 mps 613 mmHg 92%
    08:00 +6°C° 0.5 mm 1 mps 613 mmHg 90%
    09:00 +7°C° 0.5 mm 1 mps 614 mmHg 88%
    10:00 +7°C° 0.4 mm 1 mps 614 mmHg 88%
    11:00 +7°C° 0.4 mm 1 mps 614 mmHg 88%
    12:00 +7°C° 0.4 mm 1 mps 614 mmHg 88%
    13:00 +8°C° 0.6 mm 1 mps 614 mmHg 86%
    14:00 +8°C° 0.6 mm 1 mps 614 mmHg 84%
    15:00 +9°C° 0.6 mm 1 mps 614 mmHg 82%
    16:00 +8°C° 1.3 mm 1 mps 613 mmHg 87%
    17:00 +7°C° 1.3 mm 1 mps 613 mmHg 91%
    18:00 +6°C° 1.3 mm 1 mps 613 mmHg 96%
    19:00 +6°C° 0.9 mm 1 mps 613 mmHg 96%
    20:00 +6°C° 0.9 mm 1 mps 613 mmHg 96%
    21:00 +5°C° 0.9 mm 1 mps 614 mmHg 96%
    22:00 +5°C° 0.5 mm 1 mps 614 mmHg 96%
    23:00 +5°C° 0.5 mm 1 mps 614 mmHg 96%
    Show more